Preview of NWS' New Version of Forecast
This preview is not operational and should not be used for support decisions.

Regional Weather Roundup (RWR)

Issued by National Weather Service (NWS)

                            
000
ASUS43 KTOP 251008
RWRKS 

WEATHER ROUNDUP FOR KANSAS
NATIONAL WEATHER SERVICE GOODLAND KS
500 AM CDT SUN AUG 25 2019

NOTE:  "FAIR" INDICATES FEW OR NO CLOUDS BELOW 12,000 FEET WITH NO
SIGNIFICANT WEATHER AND/OR OBSTRUCTIONS TO VISIBILITY.

KSZ001>006-013>018-027>032-041>047-251100-
NORTHWEST KANSAS
  
CITY           SKY/WX    TMP DP  RH WIND       PRES   REMARKS
GOODLAND       FOG       63  63 100 SE8       29.90F VSB 1/4          
HAYS           CLOUDY    62  62 100 S7        29.65R                  
HILL CITY      CLEAR     61  60  97 E5        29.88F                  
RUSSELL        CLEAR     64  62  93 N9        29.84F                  
$$

KSZ061>065-074>080-084>089-251100-
SOUTHWEST KANSAS
  
CITY           SKY/WX    TMP DP  RH WIND       PRES   REMARKS
DODGE CITY     CLOUDY    67  66  97 E8        29.87F FOG              
ELKHART        FAIR      69  69  97 S9        29.90F                  
GARDEN CITY    CLEAR     66  64  93 NE3       29.86F                  
GREAT BEND     TSTM      63  63 100 SE9       29.89R FOG              
LIBERAL        CLEAR     70  67  90 S10       29.86F                  
PRATT          TSTM      63  62  95 N6        29.90F                  
$$

KSZ066>073-081>083-090>101-251100-
SOUTHEAST KANSAS
  
CITY           SKY/WX    TMP DP  RH WIND       PRES   REMARKS
CHANUTE        CLOUDY    72  70  93 S9        29.92F                  
COFFEYVILLE    CLOUDY    73  70  90 SE9       29.88F                  
HUTCHINSON     TSTM      64  62  93 W5        29.90S FOG              
MEDICINE LODGE   N/A     65  62  90 NE31G51   29.89R                  
NEWTON         MOCLDY    62  61  96 S8        29.90F                  
PARSONS        CLOUDY    72  71  97 VRB6      29.92F                  
WICHITA INTL   TSTM      65  61  87 SE3       29.89S                  
WICHITA JABRA  RAIN      63  62  97 SE6       29.89F                  
WICHITA MCCONL LGT RAIN  64  61  88 E6        29.90                   
WINFIELD       TSTM      63  63 100 E15G21    29.91R FOG              
$$

KSZ007>012-019>026-033>040-048>060-102>105-251100-
NORTHEAST KANSAS
  
CITY           SKY/WX    TMP DP  RH WIND       PRES   REMARKS
CONCORDIA      CLOUDY    67  65  93 NE8       29.88F                  
EMPORIA        TSTM      65  65 100 N7        29.87F                  
LAWRENCE       CLOUDY    70  63  78 SE13G21   29.90F                  
MANHATTAN      HVY RAIN  67  65  93 E12       29.84F                  
MARYSVILLE     CLOUDY   N/A N/A N/A CALM      29.91S                  
OLATHE IND     CLOUDY    68  63  84 SE13      29.93F                  
OLATHE EXE     CLOUDY    67  63  87 SE10      29.93F                  
SALINA         CLOUDY    65  63  93 NW6       29.84F                  
TOPEKA BILLARD CLOUDY    68  64  87 SE10      29.89F                  
TOPEKA FORBES  CLOUDY    68  65  90 E9        29.89S                  
$$